Starlink 31880

operational
NORAD ID: 59661 Int'l Des: 2024-084 Owner: SPXS Country: US Constellation: starlink
LEOCIRCULAR

About Starlink 31880

Description loading...

Live Position

Loading 3D Globe...

Upcoming Passes

Altitude History

Altitude vs Time

uPlot chart will show altitude changes over time

Two-Line Element Set

1 59661U 24084H 25349.85642099 .00015701 00000-0 58015-3 0 9997
2 59661 43.0020 151.6372 0000965 251.3328 108.7419 15.27506603 91596
Epoch: Dec 15, 2025 • Age: 24 hours

Current Status

Altitude 483.3 km
Velocity 7.63 km/s
Sub-Earth Point 22.88°N, 143.42°E
Launch Date May 6, 2024
Age 1.6 years
Type internet

Technical Details

Classification Payload
Mass 730.00 kg
Dry Mass 700.00 kg
Total Mass 730.00 kg
Length 0.30 m
Diameter 4.10 m
Span 29.00 m
Shape Box + pan
Manufacturer SPXS
Bus Type Starlink V2M
Phase Status In Orbit
Owner/State SPXS/US

Large Constellations

Loading constellations...